When you browse on this site, cookies collect data to enhance your experience and personalize the content and advertising you see.
Visit our Privacy Policy to learn more. By continuing to use the site, you agree to this use of cookies and data.
  • In Lithuania
  • List of Countries
  • For 7 days
  • Water Temperature
  • Weather Map
  • Weather Widgets
  • user-avatar
    Login

    Hourly Weather Rydwagi

    Today, 18 August, Sunday

    Time Temperature Precipitation Wind Pressure Humidity
    00:00 +17°C° 0 mm 2 mps 746 mmHg 75%
    01:00 +17°C° 0 mm 2 mps 746 mmHg 77%
    02:00 +16°C° 0 mm 2 mps 746 mmHg 78%
    03:00 +16°C° 0 mm 3 mps 745 mmHg 79%
    04:00 +16°C° 0 mm 3 mps 745 mmHg 80%
    05:00 +17°C° 0 mm 3 mps 745 mmHg 77%
    06:00 +18°C° 0 mm 3 mps 745 mmHg 75%
    07:00 +19°C° 0 mm 4 mps 745 mmHg 72%
    08:00 +21°C° 0 mm 4 mps 745 mmHg 66%
    09:00 +22°C° 0 mm 4 mps 745 mmHg 61%
    10:00 +25°C° 0 mm 4 mps 745 mmHg 55%
    11:00 +26°C° 0 mm 4 mps 745 mmHg 53%
    12:00 +27°C° 0 mm 5 mps 745 mmHg 50%
    13:00 +27°C° 0 mm 5 mps 744 mmHg 48%
    14:00 +27°C° 0 mm 5 mps 744 mmHg 50%
    15:00 +27°C° 0 mm 4 mps 744 mmHg 51%
    16:00 +27°C° 0 mm 4 mps 744 mmHg 53%
    17:00 +25°C° 0 mm 4 mps 744 mmHg 58%
    18:00 +23°C° 0 mm 4 mps 744 mmHg 62%
    19:00 +21°C° 0 mm 4 mps 743 mmHg 67%
    20:00 +21°C° 0 mm 4 mps 743 mmHg 71%
    21:00 +20°C° 0 mm 4 mps 743 mmHg 76%
    22:00 +19°C° 0 mm 4 mps 743 mmHg 80%
    23:00 +20°C° 0.1 mm 4 mps 743 mmHg 81%

    Tomorrow, 19 August, Monday

    Time Temperature Precipitation Wind Pressure Humidity
    00:00 +20°C° 0.1 mm 4 mps 744 mmHg 82%
    01:00 +20°C° 0.1 mm 5 mps 744 mmHg 83%
    02:00 +19°C° 0 mm 4 mps 744 mmHg 87%
    03:00 +19°C° 0 mm 4 mps 744 mmHg 91%
    04:00 +18°C° 0 mm 4 mps 745 mmHg 95%
    05:00 +19°C° 0 mm 4 mps 745 mmHg 92%
    06:00 +19°C° 0 mm 4 mps 746 mmHg 89%
    07:00 +20°C° 0 mm 4 mps 746 mmHg 85%
    08:00 +21°C° 0 mm 4 mps 747 mmHg 79%
    09:00 +22°C° 0 mm 4 mps 747 mmHg 72%
    10:00 +25°C° 0 mm 4 mps 748 mmHg 66%
    11:00 +25°C° 0.3 mm 4 mps 748 mmHg 68%
    12:00 +23°C° 0.3 mm 4 mps 748 mmHg 70%
    13:00 +23°C° 0.3 mm 4 mps 748 mmHg 72%
    14:00 +23°C° 1.3 mm 4 mps 748 mmHg 74%
    15:00 +22°C° 1.3 mm 3 mps 748 mmHg 76%
    16:00 +22°C° 1.3 mm 3 mps 749 mmHg 79%
    17:00 +21°C° 0.2 mm 2 mps 749 mmHg 83%
    18:00 +20°C° 0.2 mm 2 mps 749 mmHg 87%
    19:00 +20°C° 0.2 mm 1 mps 749 mmHg 90%
    20:00 +19°C° 0 mm 1 mps 750 mmHg 91%
    21:00 +19°C° 0 mm 1 mps 750 mmHg 92%
    22:00 +18°C° 0 mm 1 mps 750 mmHg 93%
    23:00 +16°C° 0 mm 1 mps 751 mmHg 94%

    Day after tomorrow, 20 August, Tuesday

    Time Temperature Precipitation Wind Pressure Humidity
    00:00 +16°C° 0 mm 1 mps 751 mmHg 94%
    01:00 +15°C° 0 mm 1 mps 751 mmHg 95%
    02:00 +15°C° 0 mm 1 mps 751 mmHg 95%
    03:00 +15°C° 0 mm 1 mps 752 mmHg 95%
    04:00 +15°C° 0 mm 1 mps 752 mmHg 95%
    05:00 +16°C° 0 mm 1 mps 752 mmHg 92%
    06:00 +18°C° 0 mm 1 mps 752 mmHg 89%
    07:00 +19°C° 0 mm 1 mps 752 mmHg 87%
    08:00 +21°C° 0 mm 1 mps 753 mmHg 78%
    09:00 +21°C° 0 mm 2 mps 753 mmHg 69%
    10:00 +24°C° 0 mm 2 mps 753 mmHg 60%
    11:00 +24°C° 0 mm 2 mps 753 mmHg 57%
    12:00 +25°C° 0 mm 2 mps 753 mmHg 54%
    13:00 +25°C° 0 mm 2 mps 753 mmHg 51%
    14:00 +25°C° 0 mm 2 mps 753 mmHg 50%
    15:00 +25°C° 0 mm 1 mps 753 mmHg 50%
    16:00 +25°C° 0 mm 1 mps 752 mmHg 49%
    17:00 +24°C° 0 mm 1 mps 752 mmHg 55%
    18:00 +21°C° 0 mm 2 mps 752 mmHg 62%
    19:00 +20°C° 0 mm 2 mps 753 mmHg 69%
    20:00 +19°C° 0 mm 2 mps 753 mmHg 70%
    21:00 +19°C° 0 mm 2 mps 753 mmHg 70%
    22:00 +19°C° 0 mm 2 mps 753 mmHg 71%
    23:00 +18°C° 0.2 mm 2 mps 752 mmHg 76%

    21 August, Wednesday

    Time Temperature Precipitation Wind Pressure Humidity
    00:00 +18°C° 0.2 mm 2 mps 752 mmHg 81%
    01:00 +17°C° 0.2 mm 2 mps 752 mmHg 85%
    02:00 +17°C° 0.9 mm 3 mps 752 mmHg 88%
    03:00 +17°C° 0.9 mm 4 mps 751 mmHg 91%
    04:00 +15°C° 0.9 mm 5 mps 751 mmHg 94%
    05:00 +15°C° 3.3 mm 5 mps 751 mmHg 94%
    06:00 +14°C° 3.3 mm 6 mps 751 mmHg 94%
    07:00 +14°C° 3.3 mm 6 mps 751 mmHg 94%
    08:00 +14°C° 1 mm 6 mps 751 mmHg 94%
    09:00 +13°C° 1 mm 5 mps 752 mmHg 94%
    10:00 +13°C° 1 mm 5 mps 752 mmHg 93%
    11:00 +14°C° 0 mm 4 mps 753 mmHg 91%
    12:00 +16°C° 0 mm 3 mps 753 mmHg 88%
    13:00 +16°C° 0 mm 3 mps 754 mmHg 85%
    14:00 +17°C° 0 mm 3 mps 754 mmHg 82%
    15:00 +18°C° 0 mm 2 mps 755 mmHg 79%
    16:00 +18°C° 0 mm 2 mps 755 mmHg 76%
    17:00 +17°C° 0 mm 2 mps 755 mmHg 80%
    18:00 +16°C° 0 mm 1 mps 755 mmHg 85%
    19:00 +15°C° 0 mm 1 mps 755 mmHg 89%
    20:00 +14°C° 0 mm 1 mps 756 mmHg 90%
    21:00 +14°C° 0 mm 2 mps 756 mmHg 92%
    22:00 +13°C° 0 mm 2 mps 756 mmHg 93%
    23:00 +13°C° 0 mm 2 mps 756 mmHg 93%

    22 August, Thursday

    Time Temperature Precipitation Wind Pressure Humidity
    00:00 +12°C° 0 mm 2 mps 756 mmHg 92%
    01:00 +12°C° 0 mm 1 mps 757 mmHg 92%
    02:00 +12°C° 0 mm 1 mps 757 mmHg 92%
    03:00 +12°C° 0 mm 1 mps 757 mmHg 93%
    04:00 +12°C° 0 mm 1 mps 757 mmHg 93%
    05:00 +13°C° 0 mm 1 mps 757 mmHg 89%
    06:00 +14°C° 0 mm 1 mps 757 mmHg 85%
    07:00 +15°C° 0 mm 1 mps 757 mmHg 81%
    08:00 +18°C° 0 mm 1 mps 757 mmHg 74%
    09:00 +19°C° 0 mm 1 mps 758 mmHg 68%
    10:00 +19°C° 0 mm 2 mps 758 mmHg 61%
    11:00 +20°C° 0 mm 2 mps 758 mmHg 58%
    12:00 +20°C° 0 mm 2 mps 757 mmHg 55%
    13:00 +21°C° 0 mm 2 mps 757 mmHg 52%
    14:00 +21°C° 0 mm 2 mps 757 mmHg 53%
    15:00 +21°C° 0 mm 2 mps 757 mmHg 55%
    16:00 +21°C° 0 mm 2 mps 757 mmHg 56%
    17:00 +19°C° 0 mm 2 mps 757 mmHg 65%
    18:00 +17°C° 0 mm 2 mps 757 mmHg 73%
    19:00 +15°C° 0 mm 2 mps 757 mmHg 81%
    20:00 +14°C° 0 mm 1 mps 757 mmHg 84%
    21:00 +14°C° 0 mm 1 mps 757 mmHg 86%
    22:00 +13°C° 0 mm 1 mps 757 mmHg 88%
    23:00 +13°C° 0 mm 1 mps 757 mmHg 89%

    23 August, Friday

    Time Temperature Precipitation Wind Pressure Humidity
    00:00 +11°C° 0 mm 0 mps 757 mmHg 89%
    01:00 +11°C° 0 mm 0 mps 757 mmHg 89%
    02:00 +11°C° 0 mm 0 mps 757 mmHg 89%
    03:00 +11°C° 0 mm 0 mps 757 mmHg 88%
    04:00 +11°C° 0 mm 0 mps 757 mmHg 88%
    05:00 +12°C° 0 mm 0 mps 757 mmHg 84%
    06:00 +13°C° 0 mm 0 mps 758 mmHg 80%
    07:00 +15°C° 0 mm 0 mps 758 mmHg 76%
    08:00 +18°C° 0 mm 1 mps 758 mmHg 71%
    09:00 +18°C° 0 mm 2 mps 758 mmHg 65%
    10:00 +20°C° 0 mm 2 mps 758 mmHg 60%
    11:00 +20°C° 0 mm 2 mps 758 mmHg 57%
    12:00 +21°C° 0 mm 3 mps 758 mmHg 54%
    13:00 +21°C° 0 mm 3 mps 758 mmHg 52%
    14:00 +21°C° 0 mm 3 mps 758 mmHg 54%
    15:00 +21°C° 0 mm 3 mps 758 mmHg 57%
    16:00 +21°C° 0 mm 3 mps 758 mmHg 59%
    17:00 +19°C° 0 mm 3 mps 758 mmHg 68%
    18:00 +17°C° 0 mm 3 mps 758 mmHg 76%
    19:00 +15°C° 0 mm 2 mps 758 mmHg 84%
    20:00 +15°C° 0 mm 2 mps 758 mmHg 86%
    21:00 +14°C° 0 mm 2 mps 758 mmHg 88%
    22:00 +13°C° 0 mm 2 mps 758 mmHg 90%
    23:00 +13°C° 0 mm 1 mps 758 mmHg 90%
    Show more